User: anonymous   Login
Location: Rancho Del Sol Observatory
(38.7214°N, 120.6350°W)
Time: 02:34:11
(UTC-08:00)
Language:

Courier 1B - Orbit

View from above orbital plane
View from above orbital plane
View from above satellite
View from above satellite

Ground track
Ground track

The orbit data is extracted from the following two-line orbital elements,

1 00058U 60013A   21016.68003778  .00000084  00000-0  27667-5 0  9997
2 00058  28.3280  92.8732 0165083  34.5955 326.5209 13.46325238967379
Epoch (UTC): 16 January 2021 16:19:15
Eccentricity: 0.0165083
inclination: 28.3280°
perigee height: 962 km
apogee height: 1209 km
right ascension of ascending node: 92.8732°
argument of perigee: 34.5955°
revolutions per day: 13.46325238
mean anomaly at epoch: 326.5209°
orbit number at epoch: 96737

The dashed part of the orbit path shows where the satellite is in the earth's shadow,  

DLR